カタログに戻る

SL-16 DEB

運用中LEO
NORAD 31794·DEBRIS·🇷🇺 Russia

打ち上げ Jun 29, 2007 から Baikonur Cosmodrome

Loading…

次のパス (今後24時間)

TLE

最新Source: Space-Track

元期: Sep 14, 2026, 02:07 UTC

1 31794U 07029C   26257.08841507  .00000046  00000-0  83706-4 0  9995
2 31794  71.0421 123.8822 0204725 182.3480 331.2207 13.71801572961530

AllMySatでSL-16 DEBをリアルタイム追跡

Download on the App Store